Track COSMOS 1344 now! 10-day predictions COSMOS 1344 is classified as:
1 13110U 82024A 22187.54784363 .00000012 00000-0 -29852-5 0 9997 2 13110 82.9214 47.9337 0029552 41.6412 24.3684 13.74032611 19553